[ show orbit diagram ]
Orbital Elements at Epoch 2459000.5 (2020-May-31.0) TDB
Reference: JPL 35 (heliocentric ecliptic J2000)
Element | Value | Uncertainty (1-sigma) | Units |
e | .1583894573624886 | 4.0376e-08 | |
a | 2.588707891265896 | 1.1149e-08 | au |
q | 2.178683853098299 | 1.0779e-07 | au |
i | 15.88856382747145 | 3.2444e-06 | deg |
node | 116.498847990716 | 1.4426e-05 | deg |
peri | 263.2772870302397 | 1.7571e-05 | deg |
M | 317.8839344504048 | 9.7966e-06 | deg |
tp | 2459178.478806626876 (2020-Nov-24.97880663) | 4.1326e-05 | TDB |
period | 1521.328489486388 4.17 | 9.8283e-06 2.691e-08 | d yr |
n | .2366352845476119 | 1.5287e-09 | deg/d |
Q | 2.998731929433494 | 1.2915e-08 | au |
|
| | Orbit Determination Parameters
Additional Information
|
[ hide covariance matrix ]
Orbital Elements at Epoch 2457402.5 (2016-Jan-15.0) TDB
Reference: JPL 35 (heliocentric ecliptic J2000)
Element | Value | Uncertainty (1-sigma) | Units |
e | .1605058277484019 | 4.0533e-08 | |
q | 2.172551516380235 | 1.0849e-07 | au |
tp | 2457657.528256003623 (2016-Sep-26.02825600) | 4.216e-05 | TDB |
node | 116.5688432283665 | 1.4454e-05 | deg |
peri | 263.3227546854193 | 1.7477e-05 | deg |
i | 15.87672936026965 | 3.2424e-06 | deg |
|
| | Orbit Determination Parameters
Additional Information
|
Orbit Covariance (6×6)
|
|
e |
q |
tp |
node |
peri |
i |
e |
1.642920387699664E-15 |
-4.382636917109613E-15 |
3.449061550952534E-13 |
1.846791756485239E-14 |
1.004048314836173E-13 |
-4.003608092217768E-15 |
q |
-4.382636917109613E-15 |
1.176902132748264E-14 |
-1.006519565577849E-12 |
-4.835421214820284E-14 |
-2.910394985808755E-13 |
1.094219777877164E-14 |
tp |
3.449061550952534E-13 |
-1.006519565577849E-12 |
1.777503889716327E-9 |
8.460383170143924E-12 |
4.333674266784908E-10 |
-9.359877336879361E-14 |
node |
1.846791756485239E-14 |
-4.835421214820284E-14 |
8.460383170143924E-12 |
2.089237407386378E-10 |
-1.984551064204944E-10 |
-3.254278737689155E-12 |
peri |
1.004048314836173E-13 |
-2.910394985808755E-13 |
4.333674266784908E-10 |
-1.984551064204944E-10 |
3.05462568357439E-10 |
3.054931621702983E-12 |
i |
-4.003608092217768E-15 |
1.094219777877164E-14 |
-9.359877336879361E-14 |
-3.254278737689155E-12 |
3.054931621702983E-12 |
1.051306748315184E-11 |
|
Physical Parameter Table
Parameter |
Symbol |
Value |
Units |
Sigma |
Reference |
Notes |
absolute magnitude |
H |
12.3 |
|
n/a |
MPO344345 |
|
diameter |
diameter |
8.597 |
km |
0.183 |
urn:nasa:pds:neowise_diameters_albedos::2.0[mainbelt] (http://adsabs.harvard.edu/abs/2011ApJ...741...68M) |
|
rotation period |
rot_per |
5.187 |
h |
n/a |
LCDB (Rev. 2020-October); Warner et al., 2009 |
Result based on less than full coverage, so that the period may be wrong by 30 percent or so. Published Reference List: [Alvarez-Candal, A.; Duffard, R.; Angeli, C.A.; Lazzaro, D.; Fernandez, S. (2004) Icarus 172, 388-401.] [Han, X.L.; Li, B.; Zhao, H.; Liu. W.; et al. (2013) Minor Planet Bull. 40, 99-100.] |
geometric albedo |
albedo |
0.345 |
|
0.055 |
urn:nasa:pds:neowise_diameters_albedos::2.0[mainbelt] (http://adsabs.harvard.edu/abs/2011ApJ...741...68M) |
|
|
5542 Moffatt | Discovered 1978 Aug. 6 at the Perth Observatory, Bickley. |
Ethelwin Frances Flamsteed Moffatt (née Winzar, b. 1926) is a direct descendant of John Flamsteed, the first Astronomer Royal. Born in Fremantle, Western Australia, she now resides in Adelaide, where she and her husband, Mervyn Moffatt, are kind benefactors of the Perth Observatory. |
NOTE: some special characters may not display properly (any characters within {} are an attempt to place the proper accent above a character) |
Reference: 20010902/MPCPages.arc | Last Updated: 2009-05-11 |
|
[ show close-approach data ]
|
|